Flag for U.S.A. Weather past 2 weeks in Stamford, Connecticut, U.S.A.

Now
73 °F

Clear.


Feels Like: 72 °F
Forecast: 70 / 88 °F
Wind: No wind

Location: Westchester County Airport

Current Time: Aug 30, 2015 at 11:06:31 PM

Latest Report: Aug 30, 2015 at 9:56 PM


Visibility: 10 mi

Pressure: 30.02 "Hg

Humidity: 84%

Dew point: 68 °F

Location of StamfordLocation

Historic Weather in Stamford — Graph

°F

Stamford temperature yesterday

Maximum temperature yesterday: 82 °F (at 2:56 PM)
Minimum temperature yesterday: 59 °F (at 4:56 AM)
Average temperature yesterday: 71 °F

Past Weeks' High & Low Weather Summary

 TemperatureHumidityPressure
High90 °F (Aug 17, 1:56 PM)97% (Aug 18, 11:56 PM)30.21 "Hg (Aug 18, 11:56 PM)
Low59 °F (Aug 28, 5:56 AM)33% (Aug 26, 3:56 PM)29.79 "Hg (Aug 25, 4:56 PM)
Average74 °F69%30.02 "Hg
* Reported Aug 15 9:56 PM — Aug 30 9:56 PM, Stamford, Weather by CustomWeather, © 2015

Note: Actual official high and low records may vary slightly from our data, if they occured in-between our weather recording intervals... More about our weather records

Advertising

Stamford weather history for previous 24 hours

 ConditionsComfort  
Time TempWeatherWind HumidityBarometerVisibility
9:56 PM
Sun, Aug 30
73 °FClear.No wind84%30.02 "Hg10 mi
8:56 PM72 °FClear.No wind87%30.02 "Hg10 mi
7:56 PM74 °FSunny.No wind82%30.01 "Hg10 mi
6:56 PM79 °FPartly sunny.3 mph69%30.00 "Hg10 mi
4:56 PM80 °FBroken clouds.No wind71%30.01 "Hg10 mi
3:56 PM83 °FLight rain. Broken clouds.8 mph55%30.02 "Hg10 mi
2:56 PM84 °FPartly sunny.3 mph51%30.03 "Hg10 mi
1:56 PM86 °FPartly sunny.7 mph46%30.05 "Hg10 mi
12:56 PM86 °FScattered clouds.5 mph49%30.06 "Hg10 mi
11:56 AM84 °FPassing clouds.No wind51%30.07 "Hg10 mi
10:56 AM81 °FSunny.5 mph56%30.09 "Hg10 mi
9:56 AM78 °FSunny.No wind64%30.09 "Hg10 mi
8:56 AM73 °FSunny.5 mph74%30.09 "Hg10 mi
7:56 AM70 °FSunny.6 mph79%30.09 "Hg10 mi
6:56 AM65 °FClear.3 mph91%30.09 "Hg9 mi
5:56 AM67 °FClear.5 mph81%30.07 "Hg10 mi
4:56 AM65 °FClear.No wind85%30.07 "Hg10 mi
3:56 AM66 °FClear.No wind84%30.06 "Hg10 mi
2:56 AM69 °FClear.3 mph76%30.07 "Hg10 mi
1:56 AM70 °FClear.No wind73%30.08 "Hg10 mi
12:56 AM66 °FClear.No wind87%30.10 "Hg10 mi
11:56 PM
Sat, Aug 29
68 °FClear.No wind82%30.10 "Hg10 mi
Weather by CustomWeather, © 2015

See weather overviewHow to use our weather pages